DECAYED

STARLINK-1323, 45553 (Decayed)

Orbit data source: Space-Track

STARLINK-1323, 45553 was a payload satellite owned by SpaceX/Seattle (US) in LEO that was launched on Wed, 22 Apr 2020 UTC via an FALCON 9 launch vehicle from the Air Force Eastern Test Range (AFETR). Payload-class satellites include a variety of spacecraft equipped with specific instruments for various scientific and technological missions. These include communications satellites like Starlink; space stations such as the ISS; scientific satellites like the Hubble; Earth observation satellites from companies like Planet Labs, Umbra, and HawkEye 360; GPS; miniature CubeSats for education and research; and military/defense satellites.

Not visible in the next 10 days
Identifier
45553, 2020-025Y
Orbit
Decayed
Country
Flag of USUS
Related business
Manufacturer
SpaceX/Seattle
Mission
Decayed Commercial Communications
Bus & Motor
STARLINK, Unknown motor
Mass
260 kg wet, ~248 kg dry
Launch date (UTC)
2020-04-22 (6 years ago)
Launch vehicle
FALCON 9
Launch site
Air Force Eastern Test Range (AFETR)
Object type
Payload
Rocket body
Debris
Shape & HBR
Box + 1 Pan, 10.1 m
Radar Cross Section
13.562 m², Large (>1 m²)

Expand to show TLE details & history
Last TLE update: 7 months ago

TLE from 7 months ago
0 STARLINK-1323
1 45553U 20025Y   25292.46479120  .11125131  12480-4  35769-3 0  9991
2 45553  53.0174 290.9761 0003576 255.1081 104.9572 16.44780239303762
Epoch: 2025-10-19T11:09Z
TLE epoch observation values (Epoch: 2025-10-19T11:09:17.959Z)
Latitude
0.00002°
Longitude
95.47022°
Altitude
154.649 km
Speed
7.814 km/s
True Right ascension
19h 23m 54s
True Declination
0° 00' 00"
Sunlit
Object was in daylight at epoch
Visualization orbit readout
Latitude
Unknown
Longitude
Unknown
Altitude
Unknown
Speed
Unknown
Apparent Right ascension
Unknown
Apparent Declination
Unknown
Sunlit
N/A
Visualization observer readout
Local Sidereal Time
20:09:08
Azimuth
Unknown
Elevation
Unknown
Doppler factor
Unknown
Orbital elements
Apogee altitude
155.746 km
Perigee altitude
151.074 km
Semi-major axis
6,531.547 km
Eccentricity
0.00036
Inclination
53.0174°
RAAN
290.9761°
Arg. of periapsis
255.1081°
True anomaly
104.99678°
Mean anomaly
104.9572°
Eccentric anomaly
104.97699°
Mean motion
4.11168 °/min
Orbital period
87.56 mins
BSTAR
0.00035769
Loading maneuver chart data...
Computing Atmospheric mass density...
Loading historical data...
Loading historical data...
Loading historical data...
Loading historical data...
Loading historical data...
Loading historical data...
Loading historical data...

Documentation

Showing up to 5 results
|